Location: Karcze
(52.0945°N, 22.4786°E)
Time: 22:13:30
(UTC+00:00)

Transit 4A - Pass Details

Date: 01 August 2021
Orbit: 871 x 974 km, 66.8° (Epoch: 18 September)

Event Time Altitude Azimuth Distance (km) Brightness Sun altitude
Exits shadow 00:21:55 11° 256° (WSW) 2,486 9.8 -16.2°
Maximum altitude 00:27:14 39° 324° (NW) 1,286 8.9 -15.9°
Drops below altitude 10° 00:32:41 10° 33° (NNE) 2,530 11.6 -15.5°
Sets 00:35:21 0° 41° (NE) 3,475 12.6 -15.3°
